TAM4666 SBGR-SBSR

Flight info

Callsign TAM4666
Flight time 0h 44m
Altitude 30000
Route GERTU UL201 UPONA
Aircraft A20N/M-SDE2E3FGHIRWXY/LB1

Departure

Time 2026-05-08 19:59
Airport São Paulo/Guarulhos–Governor André Franco Montoro International Airport (SBGR)

Arrival

Time 2026-05-08 20:43
Airport Prof. Eribelto Manoel Reino State Airport (SBSR)
Time Latitude Longitude Altitude Speed Heading
2026-05-08 19:34 -23.42724 -46.48377 2468 ft 0 kts 86°
2026-05-08 19:44 -23.42728 -46.48411 2464 ft 3 kts 76°
2026-05-08 19:44 -23.42728 -46.48447 2464 ft 3 kts 177°
2026-05-08 19:44 -23.42768 -46.48468 2464 ft 3 kts 200°
2026-05-08 19:44 -23.42786 -46.48473 2464 ft 3 kts 192°
2026-05-08 19:45 -23.42777 -46.48456 2467 ft 3 kts 273°
2026-05-08 19:45 -23.42785 -46.48451 2470 ft 0 kts 179°
2026-05-08 19:47 -23.42805 -46.48451 2466 ft 5 kts 179°
2026-05-08 19:47 -23.42845 -46.48451 2464 ft 6 kts 180°
2026-05-08 19:47 -23.42882 -46.48451 2468 ft 5 kts 180°
2026-05-08 19:48 -23.42915 -46.48451 2464 ft 5 kts 180°
2026-05-08 19:48 -23.42929 -46.48451 2470 ft 5 kts 180°
2026-05-08 19:48 -23.42957 -46.48451 2466 ft 5 kts 180°
2026-05-08 19:48 -23.42996 -46.48451 2464 ft 6 kts 179°
2026-05-08 19:49 -23.43038 -46.48449 2466 ft 6 kts 171°
2026-05-08 19:49 -23.43089 -46.48434 2468 ft 9 kts 163°
2026-05-08 19:49 -23.43158 -46.48412 2471 ft 11 kts 163°
2026-05-08 19:49 -23.43174 -46.48341 2469 ft 12 kts 72°
2026-05-08 19:50 -23.43148 -46.48245 2467 ft 14 kts 73°
2026-05-08 19:50 -23.43118 -46.48135 2466 ft 17 kts 73°
2026-05-08 19:50 -23.43083 -46.48009 2469 ft 17 kts 75°
2026-05-08 19:50 -23.43049 -46.47883 2467 ft 17 kts 73°
2026-05-08 19:51 -23.43016 -46.47755 2466 ft 18 kts 74°
2026-05-08 19:51 -23.42980 -46.47627 2470 ft 18 kts 73°
2026-05-08 19:51 -23.42946 -46.47502 2467 ft 17 kts 73°
2026-05-08 19:51 -23.42914 -46.47384 2465 ft 16 kts 73°
2026-05-08 19:52 -23.42884 -46.47274 2464 ft 15 kts 73°
2026-05-08 19:52 -23.42857 -46.47171 2466 ft 14 kts 73°
2026-05-08 19:52 -23.42831 -46.47078 2466 ft 12 kts 73°
2026-05-08 19:52 -23.42807 -46.46991 2470 ft 12 kts 75°
2026-05-08 19:53 -23.42785 -46.46905 2470 ft 12 kts 72°
2026-05-08 19:53 -23.42760 -46.46818 2466 ft 12 kts 73°
2026-05-08 19:53 -23.42736 -46.46730 2470 ft 12 kts 73°
2026-05-08 19:53 -23.42711 -46.46638 2469 ft 13 kts 73°
2026-05-08 19:54 -23.42686 -46.46544 2466 ft 13 kts 73°
2026-05-08 19:54 -23.42660 -46.46447 2469 ft 13 kts 73°
2026-05-08 19:54 -23.42633 -46.46348 2470 ft 14 kts 73°
2026-05-08 19:54 -23.42604 -46.46242 2469 ft 16 kts 73°
2026-05-08 19:55 -23.42570 -46.46120 2468 ft 18 kts 73°
2026-05-08 19:55 -23.42534 -46.45984 2470 ft 20 kts 73°
2026-05-08 19:55 -23.42493 -46.45835 2467 ft 21 kts 73°
2026-05-08 19:55 -23.42449 -46.45674 2464 ft 23 kts 74°
2026-05-08 19:56 -23.42403 -46.45503 2467 ft 24 kts 73°
2026-05-08 19:56 -23.42353 -46.45322 2469 ft 26 kts 73°
2026-05-08 19:56 -23.42304 -46.45137 2470 ft 24 kts 73°
2026-05-08 19:56 -23.42273 -46.45001 2466 ft 14 kts 96°
2026-05-08 19:57 -23.42331 -46.44927 2463 ft 11 kts 161°
2026-05-08 19:57 -23.42404 -46.44904 2464 ft 10 kts 163°
2026-05-08 19:57 -23.42470 -46.44882 2467 ft 9 kts 163°
2026-05-08 19:57 -23.42502 -46.44898 2466 ft 4 kts 256°
2026-05-08 19:58 -23.42543 -46.45062 2467 ft 53 kts 253°
2026-05-08 19:58 -23.42711 -46.45680 2469 ft 117 kts 253°
2026-05-08 19:58 -23.42999 -46.46747 2475 ft 172 kts 257°
2026-05-08 19:58 -23.43341 -46.48022 2999 ft 176 kts 258°
2026-05-08 19:59 -23.43554 -46.49323 3656 ft 172 kts 274°
2026-05-08 19:59 -23.43307 -46.50567 4339 ft 166 kts 292°
2026-05-08 19:59 -23.42893 -46.51796 4781 ft 182 kts 293°
2026-05-08 19:59 -23.42458 -46.53168 5059 ft 201 kts 292°
2026-05-08 20:00 -23.42032 -46.54655 5434 ft 214 kts 290°
2026-05-08 20:00 -23.41580 -46.56315 5627 ft 241 kts 289°
2026-05-08 20:00 -23.41109 -46.58118 6124 ft 251 kts 289°
2026-05-08 20:00 -23.40643 -46.59940 6811 ft 255 kts 289°
2026-05-08 20:01 -23.40158 -46.61845 7515 ft 261 kts 288°
2026-05-08 20:01 -23.39680 -46.63729 8290 ft 263 kts 288°
2026-05-08 20:01 -23.39191 -46.65650 9163 ft 263 kts 289°
2026-05-08 20:01 -23.38697 -46.67577 9981 ft 265 kts 290°
2026-05-08 20:02 -23.37809 -46.69351 10479 ft 276 kts 312°
2026-05-08 20:02 -23.36409 -46.70894 10753 ft 296 kts 317°
2026-05-08 20:02 -23.34856 -46.72458 11060 ft 312 kts 317°
2026-05-08 20:02 -23.33245 -46.74090 11561 ft 320 kts 317°
2026-05-08 20:03 -23.31616 -46.75764 12174 ft 324 kts 317°
2026-05-08 20:03 -23.29976 -46.77465 12790 ft 328 kts 317°
2026-05-08 20:03 -23.28320 -46.79194 13405 ft 332 kts 317°
2026-05-08 20:03 -23.26646 -46.80945 13993 ft 335 kts 317°
2026-05-08 20:04 -23.24956 -46.82716 14519 ft 340 kts 317°
2026-05-08 20:04 -23.23240 -46.84514 15019 ft 345 kts 317°
2026-05-08 20:04 -23.21501 -46.86338 15558 ft 350 kts 317°
2026-05-08 20:04 -23.19698 -46.88146 16096 ft 353 kts 322°
2026-05-08 20:05 -23.17660 -46.89667 16615 ft 357 kts 328°
2026-05-08 20:05 -23.15521 -46.91063 17140 ft 361 kts 329°
2026-05-08 20:05 -23.13406 -46.92500 17637 ft 364 kts 324°
2026-05-08 20:05 -23.11387 -46.94183 18139 ft 368 kts 321°
2026-05-08 20:06 -23.09386 -46.95949 18574 ft 371 kts 320°
2026-05-08 20:06 -23.07396 -46.97740 19041 ft 373 kts 320°
2026-05-08 20:06 -23.05397 -46.99554 19539 ft 373 kts 320°
2026-05-08 20:06 -23.03404 -47.01369 20043 ft 374 kts 319°
2026-05-08 20:07 -23.01408 -47.03190 20541 ft 375 kts 319°
2026-05-08 20:07 -22.99405 -47.05018 21027 ft 377 kts 319°
2026-05-08 20:07 -22.97412 -47.06838 21514 ft 379 kts 319°
2026-05-08 20:07 -22.95381 -47.08691 22013 ft 381 kts 319°
2026-05-08 20:08 -22.93346 -47.10548 22516 ft 383 kts 319°
2026-05-08 20:08 -22.91301 -47.12414 23045 ft 384 kts 318°
2026-05-08 20:08 -22.89253 -47.14281 23542 ft 386 kts 318°
2026-05-08 20:08 -22.87187 -47.16165 23949 ft 388 kts 318°
2026-05-08 20:09 -22.85116 -47.18051 24348 ft 390 kts 318°
2026-05-08 20:09 -22.83062 -47.19920 24793 ft 390 kts 318°
2026-05-08 20:09 -22.80983 -47.21813 25165 ft 392 kts 318°
2026-05-08 20:09 -22.78886 -47.23722 25476 ft 395 kts 318°
2026-05-08 20:10 -22.76776 -47.25642 25850 ft 397 kts 318°
2026-05-08 20:10 -22.74649 -47.27576 26211 ft 399 kts 318°
2026-05-08 20:10 -22.72515 -47.29515 26578 ft 401 kts 318°
2026-05-08 20:10 -22.70378 -47.31456 26929 ft 402 kts 318°
2026-05-08 20:11 -22.68229 -47.33408 27276 ft 404 kts 318°
2026-05-08 20:11 -22.66066 -47.35371 27630 ft 406 kts 318°
2026-05-08 20:11 -22.63891 -47.37343 27961 ft 408 kts 318°
2026-05-08 20:11 -22.61707 -47.39324 28242 ft 411 kts 318°
2026-05-08 20:12 -22.59515 -47.41312 28562 ft 412 kts 318°
2026-05-08 20:12 -22.57309 -47.43311 28906 ft 414 kts 318°
2026-05-08 20:12 -22.55096 -47.45315 29237 ft 415 kts 318°
2026-05-08 20:12 -22.52904 -47.47299 29548 ft 417 kts 318°
2026-05-08 20:13 -22.50672 -47.49319 29843 ft 419 kts 318°
2026-05-08 20:13 -22.48417 -47.51359 29930 ft 426 kts 318°
2026-05-08 20:13 -22.43797 -47.55556 29922 ft 442 kts 316°
2026-05-08 20:14 -22.39327 -47.60261 29940 ft 456 kts 313°
2026-05-08 20:14 -22.37141 -47.62707 30396 ft 450 kts 310°
2026-05-08 20:14 -22.34996 -47.65156 30190 ft 443 kts 311°
2026-05-08 20:15 -22.32903 -47.67542 29978 ft 433 kts 312°
2026-05-08 20:15 -22.30846 -47.69851 29932 ft 419 kts 312°
2026-05-08 20:15 -22.26798 -47.74356 29930 ft 418 kts 312°
2026-05-08 20:16 -22.22732 -47.78871 29945 ft 420 kts 312°
2026-05-08 20:16 -22.18686 -47.83369 29942 ft 420 kts 312°
2026-05-08 20:17 -22.14625 -47.87884 29942 ft 419 kts 312°
2026-05-08 20:17 -22.10566 -47.92394 29934 ft 419 kts 312°
2026-05-08 20:18 -22.07189 -47.96141 29840 ft 417 kts 312°
2026-05-08 20:18 -22.05189 -47.98356 29572 ft 408 kts 312°
2026-05-08 20:18 -22.03231 -48.00525 29305 ft 399 kts 312°
2026-05-08 20:19 -22.01317 -48.02644 29041 ft 391 kts 312°
2026-05-08 20:19 -21.99428 -48.04738 28670 ft 388 kts 312°
2026-05-08 20:19 -21.97546 -48.06824 28276 ft 386 kts 312°
2026-05-08 20:19 -21.95674 -48.08897 27893 ft 385 kts 312°
2026-05-08 20:20 -21.93812 -48.10959 27526 ft 383 kts 312°
2026-05-08 20:20 -21.91977 -48.12989 27147 ft 381 kts 312°
2026-05-08 20:20 -21.90135 -48.15025 26778 ft 379 kts 312°
2026-05-08 20:20 -21.88298 -48.17056 26413 ft 377 kts 312°
2026-05-08 20:21 -21.86468 -48.19077 26055 ft 375 kts 313°
2026-05-08 20:21 -21.84652 -48.21083 25703 ft 373 kts 313°
2026-05-08 20:21 -21.82843 -48.23080 25356 ft 371 kts 312°
2026-05-08 20:21 -21.81044 -48.25063 25014 ft 369 kts 312°
2026-05-08 20:22 -21.79256 -48.27035 24666 ft 367 kts 312°
2026-05-08 20:22 -21.77475 -48.28998 24333 ft 365 kts 312°
2026-05-08 20:22 -21.75707 -48.30945 24004 ft 363 kts 312°
2026-05-08 20:22 -21.73941 -48.32892 23669 ft 362 kts 313°
2026-05-08 20:23 -21.72187 -48.34823 23301 ft 361 kts 313°
2026-05-08 20:23 -21.70455 -48.36730 22916 ft 360 kts 313°
2026-05-08 20:23 -21.68706 -48.38655 22534 ft 359 kts 313°
2026-05-08 20:23 -21.66967 -48.40568 22145 ft 358 kts 313°
2026-05-08 20:24 -21.65231 -48.42476 21774 ft 356 kts 313°
2026-05-08 20:24 -21.63498 -48.44380 21414 ft 355 kts 313°
2026-05-08 20:24 -21.61776 -48.46272 21046 ft 353 kts 313°
2026-05-08 20:24 -21.60064 -48.48153 20682 ft 351 kts 313°
2026-05-08 20:25 -21.58356 -48.50028 20324 ft 350 kts 313°
2026-05-08 20:25 -21.56657 -48.51893 19975 ft 348 kts 313°
2026-05-08 20:25 -21.54965 -48.53750 19613 ft 347 kts 313°
2026-05-08 20:25 -21.53281 -48.55597 19268 ft 346 kts 314°
2026-05-08 20:26 -21.51595 -48.57446 18931 ft 346 kts 314°
2026-05-08 20:26 -21.49909 -48.59293 18601 ft 346 kts 314°
2026-05-08 20:26 -21.48225 -48.61139 18265 ft 345 kts 314°
2026-05-08 20:26 -21.46546 -48.62977 17889 ft 344 kts 314°
2026-05-08 20:27 -21.44872 -48.64809 17503 ft 343 kts 314°
2026-05-08 20:27 -21.43207 -48.66632 17129 ft 341 kts 314°
2026-05-08 20:27 -21.41555 -48.68440 16756 ft 338 kts 314°
2026-05-08 20:27 -21.39914 -48.70234 16387 ft 336 kts 314°
2026-05-08 20:28 -21.38280 -48.72021 16020 ft 334 kts 314°
2026-05-08 20:28 -21.36676 -48.73774 15666 ft 333 kts 314°
2026-05-08 20:28 -21.35056 -48.75544 15305 ft 331 kts 315°
2026-05-08 20:28 -21.33442 -48.77307 14954 ft 331 kts 315°
2026-05-08 20:29 -21.31829 -48.79068 14605 ft 330 kts 315°
2026-05-08 20:29 -21.30224 -48.80821 14267 ft 329 kts 315°
2026-05-08 20:29 -21.28624 -48.82567 13919 ft 327 kts 315°
2026-05-08 20:29 -21.27032 -48.84303 13571 ft 326 kts 315°
2026-05-08 20:30 -21.25445 -48.86034 13183 ft 324 kts 315°
2026-05-08 20:30 -21.23871 -48.87748 12805 ft 322 kts 315°
2026-05-08 20:30 -21.22313 -48.89461 12426 ft 319 kts 313°
2026-05-08 20:30 -21.21039 -48.91355 12053 ft 318 kts 302°
2026-05-08 20:31 -21.19997 -48.93438 11760 ft 316 kts 298°
2026-05-08 20:31 -21.19027 -48.95544 11515 ft 315 kts 297°
2026-05-08 20:31 -21.18081 -48.97654 11275 ft 314 kts 297°
2026-05-08 20:31 -21.17155 -48.99741 11028 ft 307 kts 297°
2026-05-08 20:32 -21.16245 -49.01799 10693 ft 304 kts 297°
2026-05-08 20:32 -21.15354 -49.03831 10485 ft 296 kts 295°
2026-05-08 20:32 -21.14791 -49.05915 10357 ft 288 kts 282°
2026-05-08 20:32 -21.14538 -49.08026 10247 ft 284 kts 279°
2026-05-08 20:33 -21.14334 -49.10136 10126 ft 284 kts 279°
2026-05-08 20:33 -21.14135 -49.12243 10012 ft 284 kts 278°
2026-05-08 20:33 -21.13934 -49.14346 9897 ft 283 kts 279°
2026-05-08 20:33 -21.13737 -49.16445 9778 ft 283 kts 278°
2026-05-08 20:34 -21.13541 -49.18542 9650 ft 282 kts 278°
2026-05-08 20:34 -21.13342 -49.20629 9524 ft 282 kts 279°
2026-05-08 20:34 -21.12950 -49.24799 9264 ft 281 kts 279°
2026-05-08 20:35 -21.12760 -49.26852 9145 ft 280 kts 279°
2026-05-08 20:35 -21.12569 -49.28923 9000 ft 279 kts 279°
2026-05-08 20:35 -21.12358 -49.30993 8717 ft 278 kts 283°
2026-05-08 20:35 -21.11820 -49.32963 8423 ft 274 kts 297°
2026-05-08 20:36 -21.10813 -49.34670 8128 ft 270 kts 310°
2026-05-08 20:36 -21.09589 -49.36191 7839 ft 268 kts 314°
2026-05-08 20:36 -21.08326 -49.37649 7544 ft 267 kts 314°
2026-05-08 20:36 -21.07052 -49.39086 7192 ft 266 kts 315°
2026-05-08 20:37 -21.05779 -49.40513 6837 ft 264 kts 315°
2026-05-08 20:37 -21.04522 -49.41916 6496 ft 263 kts 315°
2026-05-08 20:37 -21.03259 -49.43326 6138 ft 262 kts 315°
2026-05-08 20:37 -21.01999 -49.44729 5773 ft 260 kts 315°
2026-05-08 20:38 -21.00748 -49.46124 5410 ft 259 kts 315°
2026-05-08 20:38 -20.99505 -49.47508 5050 ft 257 kts 315°
2026-05-08 20:38 -20.98266 -49.48887 4694 ft 256 kts 315°
2026-05-08 20:38 -20.97034 -49.50257 4330 ft 255 kts 315°
2026-05-08 20:39 -20.95805 -49.51618 3968 ft 254 kts 316°
2026-05-08 20:39 -20.94404 -49.52740 3560 ft 252 kts 334°
2026-05-08 20:39 -20.92704 -49.53147 3169 ft 252 kts
2026-05-08 20:39 -20.91047 -49.52654 3010 ft 245 kts 29°
2026-05-08 20:40 -20.89811 -49.51488 2991 ft 230 kts 44°
2026-05-08 20:40 -20.88835 -49.50233 3020 ft 209 kts 46°
2026-05-08 20:40 -20.87986 -49.49085 2990 ft 192 kts 46°
2026-05-08 20:40 -20.87163 -49.47981 2999 ft 185 kts 46°
2026-05-08 20:41 -20.86393 -49.46948 3000 ft 171 kts 47°
2026-05-08 20:41 -20.85690 -49.46003 2834 ft 155 kts 46°
2026-05-08 20:41 -20.85040 -49.45131 2635 ft 148 kts 47°
2026-05-08 20:41 -20.84396 -49.44276 2486 ft 147 kts 47°
2026-05-08 20:42 -20.83768 -49.43440 2312 ft 143 kts 46°
2026-05-08 20:42 -20.83137 -49.42604 2123 ft 145 kts 49°
2026-05-08 20:42 -20.82512 -49.41759 1896 ft 143 kts 50°
2026-05-08 20:42 -20.81906 -49.40961 1772 ft 129 kts 52°
2026-05-08 20:43 -20.81532 -49.40458 1768 ft 42 kts 51°
2026-05-08 20:43 -20.81431 -49.40326 1769 ft 10 kts 43°
2026-05-08 20:43 -20.81375 -49.40311 1768 ft 7 kts 350°
2026-05-08 20:43 -20.81331 -49.40325 1772 ft 6 kts 320°
2026-05-08 20:44 -20.81306 -49.40352 1770 ft 5 kts 321°
2026-05-08 20:44 -20.81284 -49.40370 1768 ft 4 kts 321°
2026-05-08 20:44 -20.81266 -49.40386 1770 ft 3 kts 321°
2026-05-08 20:44 -20.81257 -49.40393 1769 ft 0 kts 321°